Year,Month,Day,Hour,Minute,Value (Times are PST for temperature in C)
2018,05,24,00,00,17.70
2018,05,24,00,01,17.70
2018,05,24,00,02,17.70
2018,05,24,00,03,17.70
2018,05,24,00,04,17.60
2018,05,24,00,05,17.60
2018,05,24,00,06,17.60
2018,05,24,00,07,17.60
2018,05,24,00,08,17.60
2018,05,24,00,09,17.50
2018,05,24,00,10,17.50
2018,05,24,00,11,17.50
2018,05,24,00,12,17.50
2018,05,24,00,13,17.40
2018,05,24,00,14,17.40
2018,05,24,00,15,17.40
2018,05,24,00,16,17.40
2018,05,24,00,17,17.40
2018,05,24,00,18,17.30
2018,05,24,00,19,17.30
2018,05,24,00,20,17.30
2018,05,24,00,21,17.30
2018,05,24,00,22,17.30
2018,05,24,00,23,17.30
2018,05,24,00,24,17.30
2018,05,24,00,25,17.30
2018,05,24,00,26,17.30
2018,05,24,00,27,17.30
2018,05,24,00,28,17.30
2018,05,24,00,29,17.20
2018,05,24,00,30,17.20
2018,05,24,00,31,17.20
2018,05,24,00,32,17.20
2018,05,24,00,33,17.20
2018,05,24,00,34,17.20
2018,05,24,00,35,17.10
2018,05,24,00,36,17.10
2018,05,24,00,37,17.10
2018,05,24,00,38,17.10
2018,05,24,00,39,17.10
2018,05,24,00,40,17.10
2018,05,24,00,41,17.10
2018,05,24,00,42,17.10
2018,05,24,00,43,17.10
2018,05,24,00,44,17.10
2018,05,24,00,45,17.10
2018,05,24,00,46,17.10
2018,05,24,00,47,17.10
2018,05,24,00,48,17.10
2018,05,24,00,49,17.10
2018,05,24,00,50,17.10
2018,05,24,00,51,17.10
2018,05,24,00,52,17.10
2018,05,24,00,53,17.10
2018,05,24,00,54,17.10
2018,05,24,00,55,17.20
2018,05,24,00,56,17.20
2018,05,24,00,57,17.20
2018,05,24,00,58,17.20
2018,05,24,00,59,17.20
2018,05,24,01,00,17.10
2018,05,24,01,01,17.10
2018,05,24,01,02,17.10
2018,05,24,01,03,17.10
2018,05,24,01,04,17.10
2018,05,24,01,05,17.00
2018,05,24,01,06,17.00
2018,05,24,01,07,17.00
2018,05,24,01,08,17.00
2018,05,24,01,09,17.00
2018,05,24,01,10,17.00
2018,05,24,01,11,17.10
2018,05,24,01,12,17.10
2018,05,24,01,13,17.10
2018,05,24,01,14,17.10
2018,05,24,01,15,17.10
2018,05,24,01,16,17.10
2018,05,24,01,17,17.10
2018,05,24,01,18,17.00
2018,05,24,01,19,17.00
2018,05,24,01,20,17.00
2018,05,24,01,21,16.90
2018,05,24,01,22,16.90
2018,05,24,01,23,16.90
2018,05,24,01,24,16.90
2018,05,24,01,25,16.90
2018,05,24,01,26,16.90
2018,05,24,01,27,16.80
2018,05,24,01,28,16.80
2018,05,24,01,29,16.80
2018,05,24,01,30,16.80
2018,05,24,01,31,16.80
2018,05,24,01,32,16.80
2018,05,24,01,33,16.70
2018,05,24,01,34,16.70
2018,05,24,01,35,16.70
2018,05,24,01,36,16.70
2018,05,24,01,37,16.70
2018,05,24,01,38,16.60
2018,05,24,01,39,16.60
2018,05,24,01,40,16.60
2018,05,24,01,41,16.50
2018,05,24,01,42,16.50
2018,05,24,01,43,16.50
2018,05,24,01,44,16.40
2018,05,24,01,45,16.40
2018,05,24,01,46,16.40
2018,05,24,01,47,16.40
2018,05,24,01,48,16.30
2018,05,24,01,49,16.30
2018,05,24,01,50,16.30
2018,05,24,01,51,16.30
2018,05,24,01,52,16.30
2018,05,24,01,53,16.30
2018,05,24,01,54,16.30
2018,05,24,01,55,16.20
2018,05,24,01,56,16.20
2018,05,24,01,57,16.20
2018,05,24,01,58,16.20
2018,05,24,01,59,16.20
2018,05,24,02,00,16.20
2018,05,24,02,01,16.20
2018,05,24,02,02,16.10
2018,05,24,02,03,16.10
2018,05,24,02,04,16.10
2018,05,24,02,05,16.10
2018,05,24,02,06,16.10
2018,05,24,02,07,16.00
2018,05,24,02,08,16.00
2018,05,24,02,09,16.00
2018,05,24,02,10,16.00
2018,05,24,02,11,16.00
2018,05,24,02,12,15.90
2018,05,24,02,13,15.90
2018,05,24,02,14,15.90
2018,05,24,02,15,15.90
2018,05,24,02,16,15.80
2018,05,24,02,17,15.80
2018,05,24,02,18,15.80
2018,05,24,02,19,15.80
2018,05,24,02,20,15.80
2018,05,24,02,21,15.80
2018,05,24,02,22,15.70
2018,05,24,02,23,15.70
2018,05,24,02,24,15.70
2018,05,24,02,25,15.70
2018,05,24,02,26,15.70
2018,05,24,02,27,15.60
2018,05,24,02,28,15.60
2018,05,24,02,29,15.60
2018,05,24,02,30,15.60
2018,05,24,02,31,15.50
2018,05,24,02,32,15.50
2018,05,24,02,33,15.50
2018,05,24,02,34,15.40
2018,05,24,02,35,15.40
2018,05,24,02,36,15.40
2018,05,24,02,37,15.30
2018,05,24,02,38,15.30
2018,05,24,02,39,15.30
2018,05,24,02,40,15.30
2018,05,24,02,41,15.20
2018,05,24,02,42,15.20
2018,05,24,02,43,15.20
2018,05,24,02,44,15.20
2018,05,24,02,45,15.20
2018,05,24,02,46,15.10
2018,05,24,02,47,15.10
2018,05,24,02,48,15.10
2018,05,24,02,49,15.10
2018,05,24,02,50,15.00
2018,05,24,02,51,15.00
2018,05,24,02,52,15.00
2018,05,24,02,53,14.90
2018,05,24,02,54,14.90
2018,05,24,02,55,14.90
2018,05,24,02,56,14.90
2018,05,24,02,57,14.90
2018,05,24,02,58,14.90
2018,05,24,02,59,14.80
2018,05,24,03,00,14.80
2018,05,24,03,01,14.80
2018,05,24,03,02,14.80
2018,05,24,03,03,14.80
2018,05,24,03,04,14.80
2018,05,24,03,05,14.80
2018,05,24,03,06,14.80
2018,05,24,03,07,14.70
2018,05,24,03,08,14.70
2018,05,24,03,09,14.70
2018,05,24,03,10,14.70
2018,05,24,03,11,14.70
2018,05,24,03,12,14.60
2018,05,24,03,13,14.60
2018,05,24,03,14,14.60
2018,05,24,03,15,14.60
2018,05,24,03,16,14.60
2018,05,24,03,17,14.50
2018,05,24,03,18,14.50
2018,05,24,03,19,14.50
2018,05,24,03,20,14.40
2018,05,24,03,21,14.40
2018,05,24,03,22,14.40
2018,05,24,03,23,14.40
2018,05,24,03,24,14.40
2018,05,24,03,25,14.40
2018,05,24,03,26,14.40
2018,05,24,03,27,14.40
2018,05,24,03,28,14.40
2018,05,24,03,29,14.40
2018,05,24,03,30,14.40
2018,05,24,03,31,14.40
2018,05,24,03,32,14.40
2018,05,24,03,33,14.40
2018,05,24,03,34,14.40
2018,05,24,03,35,14.40
2018,05,24,03,36,14.40
2018,05,24,03,37,14.40
2018,05,24,03,38,14.40
2018,05,24,03,39,14.40
2018,05,24,03,40,14.40
2018,05,24,03,41,14.30
2018,05,24,03,42,14.30
2018,05,24,03,43,14.30
2018,05,24,03,44,14.30
2018,05,24,03,45,14.30
2018,05,24,03,46,14.30
2018,05,24,03,47,14.30
2018,05,24,03,48,14.30
2018,05,24,03,49,14.30
2018,05,24,03,50,14.30
2018,05,24,03,51,14.20
2018,05,24,03,52,14.20
2018,05,24,03,53,14.20
2018,05,24,03,54,14.20
2018,05,24,03,55,14.20
2018,05,24,03,56,14.20
2018,05,24,03,57,14.20
2018,05,24,03,58,14.20
2018,05,24,03,59,14.20
2018,05,24,04,00,14.10
2018,05,24,04,01,14.10
2018,05,24,04,02,14.10
2018,05,24,04,03,14.10
2018,05,24,04,04,14.10
2018,05,24,04,05,14.10
2018,05,24,04,06,14.10
2018,05,24,04,07,14.10
2018,05,24,04,08,14.10
2018,05,24,04,09,14.10
2018,05,24,04,10,14.10
2018,05,24,04,11,14.10
2018,05,24,04,12,14.10
2018,05,24,04,13,14.10
2018,05,24,04,14,14.10
2018,05,24,04,15,14.10
2018,05,24,04,16,14.10
2018,05,24,04,17,14.10
2018,05,24,04,18,14.10
2018,05,24,04,19,14.10
2018,05,24,04,20,14.10
2018,05,24,04,21,14.10
2018,05,24,04,22,14.10
2018,05,24,04,23,14.10
2018,05,24,04,24,14.10
2018,05,24,04,25,14.10
2018,05,24,04,26,14.10
2018,05,24,04,27,14.10
2018,05,24,04,28,14.10
2018,05,24,04,29,14.10
2018,05,24,04,30,14.10
2018,05,24,04,31,14.00
2018,05,24,04,32,14.00
2018,05,24,04,33,14.10
2018,05,24,04,34,14.10
2018,05,24,04,35,14.00
2018,05,24,04,36,14.10
2018,05,24,04,37,14.10
2018,05,24,04,38,14.00
2018,05,24,04,39,14.00
2018,05,24,04,40,14.00
2018,05,24,04,41,14.00
2018,05,24,04,42,14.00
2018,05,24,04,43,14.00
2018,05,24,04,44,14.00
2018,05,24,04,45,13.90
2018,05,24,04,46,13.90
2018,05,24,04,47,13.90
2018,05,24,04,48,13.90
2018,05,24,04,49,13.90
2018,05,24,04,50,13.80
2018,05,24,04,51,13.80
2018,05,24,04,52,13.80
2018,05,24,04,53,13.80
2018,05,24,04,54,13.80
2018,05,24,04,55,13.80
2018,05,24,04,56,13.80
2018,05,24,04,57,13.80
2018,05,24,04,58,13.80
2018,05,24,04,59,13.80
2018,05,24,05,00,13.80
2018,05,24,05,01,13.80
2018,05,24,05,02,13.80
2018,05,24,05,03,13.80
2018,05,24,05,04,13.80
2018,05,24,05,05,13.80
2018,05,24,05,06,13.80
2018,05,24,05,07,13.80
2018,05,24,05,08,13.70
2018,05,24,05,09,13.70
2018,05,24,05,10,13.80
2018,05,24,05,11,13.70
2018,05,24,05,12,13.70
2018,05,24,05,13,13.70
2018,05,24,05,14,13.70
2018,05,24,05,15,13.80
2018,05,24,05,16,13.70
2018,05,24,05,17,13.70
2018,05,24,05,18,13.80
2018,05,24,05,19,13.70
2018,05,24,05,20,13.70
2018,05,24,05,21,13.70
2018,05,24,05,22,13.70
2018,05,24,05,23,13.70
2018,05,24,05,24,13.70
2018,05,24,05,25,13.70
2018,05,24,05,26,13.70
2018,05,24,05,27,13.70
2018,05,24,05,28,13.70
2018,05,24,05,29,13.70
2018,05,24,05,30,13.70
2018,05,24,05,31,13.70
2018,05,24,05,32,13.70
2018,05,24,05,33,13.70
2018,05,24,05,34,13.70
2018,05,24,05,35,13.70
2018,05,24,05,36,13.80
2018,05,24,05,37,13.70
2018,05,24,05,38,13.80
2018,05,24,05,39,13.70
2018,05,24,05,40,13.70
2018,05,24,05,41,13.70
2018,05,24,05,42,13.70
2018,05,24,05,43,13.80
2018,05,24,05,44,13.80
2018,05,24,05,45,13.80
2018,05,24,05,46,13.80
2018,05,24,05,47,13.80
2018,05,24,05,48,13.80
2018,05,24,05,49,13.80
2018,05,24,05,50,13.80
2018,05,24,05,51,13.80
2018,05,24,05,52,13.80
2018,05,24,05,53,13.80
2018,05,24,05,54,13.80
2018,05,24,05,55,13.80
2018,05,24,05,56,13.90
2018,05,24,05,57,13.90
2018,05,24,05,58,13.90
2018,05,24,05,59,13.90
2018,05,24,06,00,14.00
2018,05,24,06,01,14.00
2018,05,24,06,02,14.00
2018,05,24,06,03,14.10
2018,05,24,06,04,14.10
2018,05,24,06,05,14.10
2018,05,24,06,06,14.10
2018,05,24,06,07,14.10
2018,05,24,06,08,14.10
2018,05,24,06,09,14.10
2018,05,24,06,10,14.20
2018,05,24,06,11,14.20
2018,05,24,06,12,14.20
2018,05,24,06,13,14.20
2018,05,24,06,14,14.20
2018,05,24,06,15,14.20
2018,05,24,06,16,14.20
2018,05,24,06,17,14.20
2018,05,24,06,18,14.30
2018,05,24,06,19,14.30
2018,05,24,06,20,14.30
2018,05,24,06,21,14.30
2018,05,24,06,22,14.30
2018,05,24,06,23,14.40
2018,05,24,06,24,14.40
2018,05,24,06,25,14.40
2018,05,24,06,26,14.50
2018,05,24,06,27,14.50
2018,05,24,06,28,14.50
2018,05,24,06,29,14.60
2018,05,24,06,30,14.60
2018,05,24,06,31,14.60
2018,05,24,06,32,14.60
2018,05,24,06,33,14.60
2018,05,24,06,34,14.60
2018,05,24,06,35,14.60
2018,05,24,06,36,14.70
2018,05,24,06,37,14.70
2018,05,24,06,38,14.70
2018,05,24,06,39,14.70
2018,05,24,06,40,14.70
2018,05,24,06,41,14.70
2018,05,24,06,42,14.70
2018,05,24,06,43,14.70
2018,05,24,06,44,14.70
2018,05,24,06,45,14.70
2018,05,24,06,46,14.70
2018,05,24,06,47,14.70
2018,05,24,06,48,14.70
2018,05,24,06,49,14.70
2018,05,24,06,50,14.70
2018,05,24,06,51,14.70
2018,05,24,06,52,14.70
2018,05,24,06,53,14.70
2018,05,24,06,54,14.70
2018,05,24,06,55,14.70
2018,05,24,06,56,14.70
2018,05,24,06,57,14.70
2018,05,24,06,58,14.70
2018,05,24,06,59,14.70
2018,05,24,07,00,14.70
2018,05,24,07,01,14.70
2018,05,24,07,02,14.70
2018,05,24,07,03,14.70
2018,05,24,07,04,14.70
2018,05,24,07,05,14.70
2018,05,24,07,06,14.70
2018,05,24,07,07,14.70
2018,05,24,07,08,14.70
2018,05,24,07,09,14.70
2018,05,24,07,10,14.70
2018,05,24,07,11,14.70
2018,05,24,07,12,14.70
2018,05,24,07,13,14.70
2018,05,24,07,14,14.70
2018,05,24,07,15,14.70
2018,05,24,07,16,14.70
2018,05,24,07,17,14.70
2018,05,24,07,18,14.70
2018,05,24,07,19,14.60
2018,05,24,07,20,14.60
2018,05,24,07,21,14.70
2018,05,24,07,22,14.70
2018,05,24,07,23,14.70
2018,05,24,07,24,14.70
2018,05,24,07,25,14.70
2018,05,24,07,26,14.70
2018,05,24,07,27,14.80
2018,05,24,07,28,14.80
2018,05,24,07,29,14.90
2018,05,24,07,30,14.90
2018,05,24,07,31,14.90
2018,05,24,07,32,14.90
2018,05,24,07,33,14.90
2018,05,24,07,34,14.80
2018,05,24,07,35,14.80
2018,05,24,07,36,14.80
2018,05,24,07,37,14.70
2018,05,24,07,38,14.80
2018,05,24,07,39,14.80
2018,05,24,07,40,14.80
2018,05,24,07,41,14.80
2018,05,24,07,42,14.80
2018,05,24,07,43,14.80
2018,05,24,07,44,14.90
2018,05,24,07,45,14.90
2018,05,24,07,46,14.90
2018,05,24,07,47,14.90
2018,05,24,07,48,14.90
2018,05,24,07,49,14.90
2018,05,24,07,50,14.90
2018,05,24,07,51,15.00
2018,05,24,07,52,15.00
2018,05,24,07,53,15.00
2018,05,24,07,54,15.00
2018,05,24,07,55,15.00
2018,05,24,07,56,15.00
2018,05,24,07,57,15.10
2018,05,24,07,58,15.10
2018,05,24,07,59,15.10
2018,05,24,08,00,15.20
2018,05,24,08,01,15.20
2018,05,24,08,02,15.20
2018,05,24,08,03,15.20
2018,05,24,08,04,15.20
2018,05,24,08,05,15.20
2018,05,24,08,06,15.20
2018,05,24,08,07,15.20
2018,05,24,08,08,15.20
2018,05,24,08,09,15.20
2018,05,24,08,10,15.20
2018,05,24,08,11,15.30
2018,05,24,08,12,15.30
2018,05,24,08,13,15.30
2018,05,24,08,14,15.30
2018,05,24,08,15,15.40
2018,05,24,08,16,15.40
2018,05,24,08,17,15.50
2018,05,24,08,18,15.50
2018,05,24,08,19,15.50
2018,05,24,08,20,15.50
2018,05,24,08,21,15.50
2018,05,24,08,22,15.50
2018,05,24,08,23,15.50
2018,05,24,08,24,15.60
2018,05,24,08,25,15.60
2018,05,24,08,26,15.60
2018,05,24,08,27,15.60
2018,05,24,08,28,15.60
2018,05,24,08,29,15.60
2018,05,24,08,30,15.70
2018,05,24,08,31,15.70
2018,05,24,08,32,15.70
2018,05,24,08,33,15.70
2018,05,24,08,34,15.70
2018,05,24,08,35,15.80
2018,05,24,08,36,15.80
2018,05,24,08,37,15.80
2018,05,24,08,38,15.80
2018,05,24,08,39,15.80
2018,05,24,08,40,15.90
2018,05,24,08,41,15.90
2018,05,24,08,42,15.90
2018,05,24,08,43,16.00
2018,05,24,08,44,16.00
2018,05,24,08,45,16.00
2018,05,24,08,46,16.00
2018,05,24,08,47,15.90
2018,05,24,08,48,15.90
2018,05,24,08,49,15.90
2018,05,24,08,50,15.90
2018,05,24,08,51,15.90
2018,05,24,08,52,15.90
2018,05,24,08,53,15.80
2018,05,24,08,54,15.80
2018,05,24,08,55,15.80
2018,05,24,08,56,15.80
2018,05,24,08,57,15.80
2018,05,24,08,58,15.90
2018,05,24,08,59,15.90
2018,05,24,09,00,16.00
2018,05,24,09,01,16.00
2018,05,24,09,02,16.10
2018,05,24,09,03,16.00
2018,05,24,09,04,16.00
2018,05,24,09,05,16.00
2018,05,24,09,06,15.90
2018,05,24,09,07,15.90
2018,05,24,09,08,15.90
2018,05,24,09,09,15.90
2018,05,24,09,10,15.90
2018,05,24,09,11,15.90
2018,05,24,09,12,15.90
2018,05,24,09,13,15.90
2018,05,24,09,14,16.00
2018,05,24,09,15,16.10
2018,05,24,09,16,16.10
2018,05,24,09,17,16.20
2018,05,24,09,18,16.30
2018,05,24,09,19,16.30
2018,05,24,09,20,16.30
2018,05,24,09,21,16.30
2018,05,24,09,22,16.30
2018,05,24,09,23,16.30
2018,05,24,09,24,16.40
2018,05,24,09,25,16.40
2018,05,24,09,26,16.40
2018,05,24,09,27,16.50
2018,05,24,09,28,16.60
2018,05,24,09,29,16.60
2018,05,24,09,30,16.70
2018,05,24,09,31,16.70
2018,05,24,09,32,16.70
2018,05,24,09,33,16.80
2018,05,24,09,34,16.80
2018,05,24,09,35,16.80
2018,05,24,09,36,16.70
2018,05,24,09,37,16.60
2018,05,24,09,38,16.40
2018,05,24,09,39,16.30
2018,05,24,09,40,16.10
2018,05,24,09,41,16.00
2018,05,24,09,42,15.90
2018,05,24,09,43,15.90
2018,05,24,09,44,16.00
2018,05,24,09,45,16.00
2018,05,24,09,46,16.10
2018,05,24,09,47,16.20
2018,05,24,09,48,16.30
2018,05,24,09,49,16.30
2018,05,24,09,50,16.40
2018,05,24,09,51,16.40
2018,05,24,09,52,16.40
2018,05,24,09,53,16.50
2018,05,24,09,54,16.60
2018,05,24,09,55,16.60
2018,05,24,09,56,16.70
2018,05,24,09,57,16.70
2018,05,24,09,58,16.80
2018,05,24,09,59,16.80
2018,05,24,10,00,16.70
2018,05,24,10,01,16.60
2018,05,24,10,02,16.40
2018,05,24,10,03,16.30
2018,05,24,10,04,16.20
2018,05,24,10,05,16.20
2018,05,24,10,06,16.20
2018,05,24,10,07,16.20
2018,05,24,10,08,16.30
2018,05,24,10,09,16.30
2018,05,24,10,10,16.30
2018,05,24,10,11,16.20
2018,05,24,10,12,16.20
2018,05,24,10,13,16.20
2018,05,24,10,14,16.30
2018,05,24,10,15,16.30
2018,05,24,10,16,16.30
2018,05,24,10,17,16.30
2018,05,24,10,18,16.40
2018,05,24,10,19,16.40
2018,05,24,10,20,16.50
2018,05,24,10,21,16.60
2018,05,24,10,22,16.70
2018,05,24,10,23,16.70
2018,05,24,10,24,16.80
2018,05,24,10,25,16.90
2018,05,24,10,26,17.00
2018,05,24,10,27,17.10
2018,05,24,10,28,17.20
2018,05,24,10,29,17.20
2018,05,24,10,30,17.40
2018,05,24,10,31,17.50
2018,05,24,10,32,17.50
2018,05,24,10,33,17.60
2018,05,24,10,34,17.70
2018,05,24,10,35,17.70
2018,05,24,10,36,17.70
2018,05,24,10,37,17.80
2018,05,24,10,38,17.80
2018,05,24,10,39,17.70
2018,05,24,10,40,17.60
2018,05,24,10,41,17.60
2018,05,24,10,42,17.60
2018,05,24,10,43,17.60
2018,05,24,10,44,17.60
2018,05,24,10,45,17.50
2018,05,24,10,46,17.40
2018,05,24,10,47,17.40
2018,05,24,10,48,17.40
2018,05,24,10,49,17.40
2018,05,24,10,50,17.50
2018,05,24,10,51,17.50
2018,05,24,10,52,17.50
2018,05,24,10,53,17.30
2018,05,24,10,54,17.20
2018,05,24,10,55,17.10
2018,05,24,10,56,17.00
2018,05,24,10,57,16.90
2018,05,24,10,58,16.80
2018,05,24,10,59,16.70
2018,05,24,11,00,16.60
2018,05,24,11,01,16.50
2018,05,24,11,02,16.40
2018,05,24,11,03,16.40
2018,05,24,11,04,16.40
2018,05,24,11,05,16.40
2018,05,24,11,06,16.40
2018,05,24,11,07,16.40
2018,05,24,11,08,16.40
2018,05,24,11,09,16.40
2018,05,24,11,10,16.50
2018,05,24,11,11,16.60
2018,05,24,11,12,16.70
2018,05,24,11,13,16.60
2018,05,24,11,14,16.60
2018,05,24,11,15,16.70
2018,05,24,11,16,16.70
2018,05,24,11,17,16.70
2018,05,24,11,18,16.80
2018,05,24,11,19,16.90
2018,05,24,11,20,16.80
2018,05,24,11,21,16.80
2018,05,24,11,22,16.80
2018,05,24,11,23,16.70
2018,05,24,11,24,16.60
2018,05,24,11,25,16.60
2018,05,24,11,26,16.60
2018,05,24,11,27,16.60
2018,05,24,11,28,16.40
2018,05,24,11,29,16.40
2018,05,24,11,30,16.30
2018,05,24,11,31,16.10
2018,05,24,11,32,16.10
2018,05,24,11,33,16.10
2018,05,24,11,34,16.10
2018,05,24,11,35,16.10
2018,05,24,11,36,16.10
2018,05,24,11,37,16.10
2018,05,24,11,38,16.00
2018,05,24,11,39,16.10
2018,05,24,11,40,16.00
2018,05,24,11,41,16.00
2018,05,24,11,42,16.00
2018,05,24,11,43,16.10
2018,05,24,11,44,16.10
2018,05,24,11,45,16.10
2018,05,24,11,46,16.10
2018,05,24,11,47,16.10
2018,05,24,11,48,16.20
2018,05,24,11,49,16.30
2018,05,24,11,50,16.40
2018,05,24,11,51,16.50
2018,05,24,11,52,16.60
2018,05,24,11,53,16.70
2018,05,24,11,54,16.80
2018,05,24,11,55,16.90
2018,05,24,11,56,17.00
2018,05,24,11,57,17.10
2018,05,24,11,58,17.20
2018,05,24,11,59,17.10
2018,05,24,12,00,17.10
2018,05,24,12,01,17.10
2018,05,24,12,02,17.10
2018,05,24,12,03,17.10
2018,05,24,12,04,17.20
2018,05,24,12,05,17.20
2018,05,24,12,06,17.30
2018,05,24,12,07,17.40
2018,05,24,12,08,17.40
2018,05,24,12,09,17.50
2018,05,24,12,10,17.60
2018,05,24,12,11,17.70
2018,05,24,12,12,17.80
2018,05,24,12,13,17.80
2018,05,24,12,14,17.80
2018,05,24,12,15,17.90
2018,05,24,12,16,17.90
2018,05,24,12,17,17.90
2018,05,24,12,18,18.00
2018,05,24,12,19,18.00
2018,05,24,12,20,18.10
2018,05,24,12,21,18.10
2018,05,24,12,22,18.10
2018,05,24,12,23,18.20
2018,05,24,12,24,18.30
2018,05,24,12,25,18.40
2018,05,24,12,26,18.50
2018,05,24,12,27,18.60
2018,05,24,12,28,18.60
2018,05,24,12,29,18.70
2018,05,24,12,30,18.70
2018,05,24,12,31,18.80
2018,05,24,12,32,18.90
2018,05,24,12,33,18.90
2018,05,24,12,34,18.90
2018,05,24,12,35,18.90
2018,05,24,12,36,18.90
2018,05,24,12,37,19.00
2018,05,24,12,38,19.00
2018,05,24,12,39,19.10
2018,05,24,12,40,19.10
2018,05,24,12,41,19.20
2018,05,24,12,42,19.20
2018,05,24,12,43,19.20
2018,05,24,12,44,19.20
2018,05,24,12,45,19.20
2018,05,24,12,46,19.20
2018,05,24,12,47,19.30
2018,05,24,12,48,19.30
2018,05,24,12,49,19.20
2018,05,24,12,50,19.20
2018,05,24,12,51,19.20
2018,05,24,12,52,19.20
2018,05,24,12,53,19.10
2018,05,24,12,54,18.90
2018,05,24,12,55,18.80
2018,05,24,12,56,18.70
2018,05,24,12,57,18.70
2018,05,24,12,58,18.70
2018,05,24,12,59,18.80
2018,05,24,13,00,18.80
2018,05,24,13,01,18.90
2018,05,24,13,02,18.90
2018,05,24,13,03,18.90
2018,05,24,13,04,18.90
2018,05,24,13,05,18.90
2018,05,24,13,06,18.90
2018,05,24,13,07,18.90
2018,05,24,13,08,18.90
2018,05,24,13,09,18.90
2018,05,24,13,10,18.90
2018,05,24,13,11,18.90
2018,05,24,13,12,18.90
2018,05,24,13,13,18.90
2018,05,24,13,14,19.00
2018,05,24,13,15,18.90
2018,05,24,13,16,19.00
2018,05,24,13,17,19.00
2018,05,24,13,18,19.00
2018,05,24,13,19,18.90
2018,05,24,13,20,18.90
2018,05,24,13,21,18.90
2018,05,24,13,22,18.90
2018,05,24,13,23,18.90
2018,05,24,13,24,18.90
2018,05,24,13,25,18.90
2018,05,24,13,26,18.90
2018,05,24,13,27,18.90
2018,05,24,13,28,18.90
2018,05,24,13,29,18.90
2018,05,24,13,30,18.90
2018,05,24,13,31,19.00
2018,05,24,13,32,19.00
2018,05,24,13,33,18.90
2018,05,24,13,34,18.90
2018,05,24,13,35,19.00
2018,05,24,13,36,19.00
2018,05,24,13,37,19.10
2018,05,24,13,38,19.10
2018,05,24,13,39,19.00
2018,05,24,13,40,19.00
2018,05,24,13,41,19.00
2018,05,24,13,42,19.00
2018,05,24,13,43,19.10
2018,05,24,13,44,19.10
2018,05,24,13,45,19.10
2018,05,24,13,46,19.20
2018,05,24,13,47,19.20
2018,05,24,13,48,19.30
2018,05,24,13,49,19.30
2018,05,24,13,50,19.30
2018,05,24,13,51,19.30
2018,05,24,13,52,19.20
2018,05,24,13,53,19.10
2018,05,24,13,54,19.00
2018,05,24,13,55,18.90
2018,05,24,13,56,18.90
2018,05,24,13,57,19.00
2018,05,24,13,58,19.10
2018,05,24,13,59,19.20
2018,05,24,14,00,19.20
2018,05,24,14,01,19.30
2018,05,24,14,02,19.30
2018,05,24,14,03,19.40
2018,05,24,14,04,19.50
2018,05,24,14,05,19.60
2018,05,24,14,06,19.70
2018,05,24,14,07,19.70
2018,05,24,14,08,19.80
2018,05,24,14,09,19.80
2018,05,24,14,10,19.70
2018,05,24,14,11,19.70
2018,05,24,14,12,19.70
2018,05,24,14,13,19.70
2018,05,24,14,14,19.70
2018,05,24,14,15,19.70
2018,05,24,14,16,19.80
2018,05,24,14,17,19.90
2018,05,24,14,18,20.00
2018,05,24,14,19,20.10
2018,05,24,14,20,20.00
2018,05,24,14,21,20.00
2018,05,24,14,22,19.80
2018,05,24,14,23,19.70
2018,05,24,14,24,19.70
2018,05,24,14,25,19.60
2018,05,24,14,26,19.60
2018,05,24,14,27,19.60
2018,05,24,14,28,19.50
2018,05,24,14,29,19.50
2018,05,24,14,30,19.50
2018,05,24,14,31,19.40
2018,05,24,14,32,19.40
2018,05,24,14,33,19.30
2018,05,24,14,34,19.20
2018,05,24,14,35,19.10
2018,05,24,14,36,19.00
2018,05,24,14,37,19.00
2018,05,24,14,38,18.90
2018,05,24,14,39,18.80
2018,05,24,14,40,18.80
2018,05,24,14,41,18.80
2018,05,24,14,42,18.80
2018,05,24,14,43,18.70
2018,05,24,14,44,18.70
2018,05,24,14,45,18.70
2018,05,24,14,46,18.70
2018,05,24,14,47,18.70
2018,05,24,14,48,18.70
2018,05,24,14,49,18.70
2018,05,24,14,50,18.70
2018,05,24,14,51,18.60
2018,05,24,14,52,18.60
2018,05,24,14,53,18.70
2018,05,24,14,54,18.80
2018,05,24,14,55,18.90
2018,05,24,14,56,18.90
2018,05,24,14,57,19.00
2018,05,24,14,58,19.10
2018,05,24,14,59,19.10
2018,05,24,15,00,19.10
2018,05,24,15,01,19.10
2018,05,24,15,02,19.10
2018,05,24,15,03,19.10
2018,05,24,15,04,19.10
2018,05,24,15,05,19.10
2018,05,24,15,06,19.20
2018,05,24,15,07,19.10
2018,05,24,15,08,19.10
2018,05,24,15,09,19.10
2018,05,24,15,10,19.10
2018,05,24,15,11,19.20
2018,05,24,15,12,19.20
2018,05,24,15,13,19.30
2018,05,24,15,14,19.30
2018,05,24,15,15,19.30
2018,05,24,15,16,19.30
2018,05,24,15,17,19.20
2018,05,24,15,18,19.20
2018,05,24,15,19,19.20
2018,05,24,15,20,19.10
2018,05,24,15,21,19.10
2018,05,24,15,22,19.10
2018,05,24,15,23,19.20
2018,05,24,15,24,19.20
2018,05,24,15,25,19.20
2018,05,24,15,26,19.20
2018,05,24,15,27,19.20
2018,05,24,15,28,19.20
2018,05,24,15,29,19.20
2018,05,24,15,30,19.10
2018,05,24,15,31,19.00
2018,05,24,15,32,19.00
2018,05,24,15,33,18.90
2018,05,24,15,34,18.90
2018,05,24,15,35,18.90
2018,05,24,15,36,18.80
2018,05,24,15,37,18.80
2018,05,24,15,38,18.80
2018,05,24,15,39,18.80
2018,05,24,15,40,18.70
2018,05,24,15,41,18.70
2018,05,24,15,42,18.60
2018,05,24,15,43,18.60
2018,05,24,15,44,18.50
2018,05,24,15,45,18.50
2018,05,24,15,46,18.60
2018,05,24,15,47,18.70
2018,05,24,15,48,18.70
2018,05,24,15,49,18.80
2018,05,24,15,50,18.90
2018,05,24,15,51,18.90
2018,05,24,15,52,18.90
2018,05,24,15,53,19.00
2018,05,24,15,54,19.10
2018,05,24,15,55,19.20
2018,05,24,15,56,19.30
2018,05,24,15,57,19.30
2018,05,24,15,58,19.30
2018,05,24,15,59,19.30
2018,05,24,16,00,19.40
2018,05,24,16,01,19.40
2018,05,24,16,02,19.40
2018,05,24,16,03,19.50
2018,05,24,16,04,19.50
2018,05,24,16,05,19.60
2018,05,24,16,06,19.60
2018,05,24,16,07,19.60
2018,05,24,16,08,19.50
2018,05,24,16,09,19.50
2018,05,24,16,10,19.40
2018,05,24,16,11,19.30
2018,05,24,16,12,19.30
2018,05,24,16,13,19.30
2018,05,24,16,14,19.40
2018,05,24,16,15,19.40
2018,05,24,16,16,19.40
2018,05,24,16,17,19.40
2018,05,24,16,18,19.40
2018,05,24,16,19,19.40
2018,05,24,16,20,19.30
2018,05,24,16,21,19.30
2018,05,24,16,22,19.30
2018,05,24,16,23,19.30
2018,05,24,16,24,19.40
2018,05,24,16,25,19.40
2018,05,24,16,26,19.50
2018,05,24,16,27,19.60
2018,05,24,16,28,19.70
2018,05,24,16,29,19.70
2018,05,24,16,30,19.80
2018,05,24,16,31,19.80
2018,05,24,16,32,19.80
2018,05,24,16,33,19.80
2018,05,24,16,34,19.80
2018,05,24,16,35,19.90
2018,05,24,16,36,19.80
2018,05,24,16,37,19.80
2018,05,24,16,38,19.80
2018,05,24,16,39,19.80
2018,05,24,16,40,19.80
2018,05,24,16,41,19.80
2018,05,24,16,42,19.90
2018,05,24,16,43,19.90
2018,05,24,16,44,19.80
2018,05,24,16,45,19.80
2018,05,24,16,46,19.70
2018,05,24,16,47,19.60
2018,05,24,16,48,19.60
2018,05,24,16,49,19.50
2018,05,24,16,50,19.40
2018,05,24,16,51,19.40
2018,05,24,16,52,19.40
2018,05,24,16,53,19.40
2018,05,24,16,54,19.40
2018,05,24,16,55,19.40
2018,05,24,16,56,19.40
2018,05,24,16,57,19.50
2018,05,24,16,58,19.50
2018,05,24,16,59,19.40
2018,05,24,17,00,19.40
2018,05,24,17,01,19.40
2018,05,24,17,02,19.40
2018,05,24,17,03,19.30
2018,05,24,17,04,19.30
2018,05,24,17,05,19.30
2018,05,24,17,06,19.30
2018,05,24,17,07,19.30
2018,05,24,17,08,19.30
2018,05,24,17,09,19.20
2018,05,24,17,10,19.20
2018,05,24,17,11,19.20
2018,05,24,17,12,19.20
2018,05,24,17,13,19.20
2018,05,24,17,14,19.10
2018,05,24,17,15,19.10
2018,05,24,17,16,19.10
2018,05,24,17,17,19.10
2018,05,24,17,18,19.20
2018,05,24,17,19,19.20